This demonstration page uses our WeatherBlox Daily Observations layout. Learn more.

Hourly Observations for March 12, 2019

Temp ( °F °C ) Dew Point ( °F °C ) Humidity (%) Winds ( mph kmh ) Pressure ( in mb ) Visibility ( mi km ) Precip ( " mm )
12:15 am 00:15 Clear 45 7 27 -3 49 49 NW 6 9 30.21 1023 10 16.09344 0 0
12:35 am 00:35 Clear 46 8 27 -3 46 46 NW 16 26 30.21 1023 10 16.09344 0 0
12:55 am 00:55 Clear 45 7 27 -3 49 49 NNW 16 26 30.21 1023 10 16.09344 0 0
1:15 am 01:15 Clear 45 7 25 -4 46 46 NNW 17 28 30.24 1024 10 16.09344 0 0
1:35 am 01:35 Clear 45 7 25 -4 46 46 NNW 15 24 30.24 1024 10 16.09344 0 0
1:55 am 01:55 Clear 45 7 23 -5 42 42 N 13 20 30.24 1024 10 16.09344 0 0
2:15 am 02:15 Clear 43 6 23 -5 46 46 N 10 17 30.24 1024 10 16.09344 0 0
2:35 am 02:35 Clear 43 6 25 -4 49 49 NNW 10 17 30.24 1024 10 16.09344 0 0
2:55 am 02:55 Clear 43 6 25 -4 49 49 N 7 11 30.27 1025 10 16.09344 0 0
3:15 am 03:15 Clear 41 5 27 -3 57 57 N 13 20 30.27 1025 10 16.09344 0 0
3:35 am 03:35 Clear 41 5 25 -4 53 53 N 7 11 30.27 1025 10 16.09344 0 0
3:55 am 03:55 Clear 41 5 25 -4 53 53 N 9 15 30.27 1025 10 16.09344 0 0
4:15 am 04:15 Clear 41 5 25 -4 53 53 NNW 6 9 30.27 1025 10 16.09344 0 0
4:35 am 04:35 Clear 41 5 25 -4 53 53 NNW 12 19 30.27 1025 10 16.09344 0 0
4:55 am 04:55 Clear 39 4 25 -4 56 56 NW 8 13 30.27 1025 10 16.09344 0 0
5:15 am 05:15 Clear 37 3 25 -4 60 60 NNW 12 19 30.27 1025 10 16.09344 0 0
5:35 am 05:35 Clear 37 3 25 -4 60 60 NNW 8 13 30.27 1025 10 16.09344 0 0
5:55 am 05:55 Clear 37 3 25 -4 60 60 NNW 7 11 30.27 1025 10 16.09344 0 0
6:15 am 06:15 Clear 37 3 25 -4 60 60 N 5 7 30.3 1026 10 16.09344 0 0
6:35 am 06:35 Clear 37 3 25 -4 60 60 N 7 11 30.3 1026 10 16.09344 0 0
6:55 am 06:55 Clear 37 3 25 -4 60 60 NNW 9 15 30.3 1026 10 16.09344 0 0
7:15 am 07:15 Clear 37 3 25 -4 60 60 NNW 9 15 30.3 1026 10 16.09344 0 0
7:35 am 07:35 Sunny 37 3 25 -4 60 60 NNW 7 11 30.3 1026 10 16.09344 0 0
7:55 am 07:55 Sunny 36 2 25 -4 65 65 N 6 9 30.3 1026 10 16.09344 0 0
8:15 am 08:15 Sunny 37 3 25 -4 60 60 NNW 6 9 30.33 1027 10 16.09344 0 0
8:35 am 08:35 Sunny 37 3 25 -4 60 60 NW 12 19 30.33 1027 10 16.09344 0 0
8:55 am 08:55 Sunny 39 4 23 -5 52 52 NNW 14 22 30.33 1027 10 16.09344 0 0
9:15 am 09:15 Sunny 39 4 23 -5 52 52 NW 21 33 30.33 1027 10 16.09344 0 0
9:35 am 09:35 Sunny 41 5 23 -5 49 49 NW 13 20 30.33 1027 10 16.09344 0 0
9:55 am 09:55 Sunny 41 5 23 -5 49 49 NW 16 26 30.33 1027 10 16.09344 0 0
10:15 am 10:15 Sunny 43 6 21 -6 42 42 NNW 16 26 30.33 1027 10 16.09344 0 0
10:35 am 10:35 Sunny 43 6 21 -6 42 42 NNW 17 28 30.33 1027 10 16.09344 0 0
10:55 am 10:55 Sunny 43 6 21 -6 42 42 NNW 14 22 30.33 1027 10 16.09344 0 0
11:15 am 11:15 Sunny 43 6 23 -5 46 46 NW 16 26 30.36 1028 10 16.09344 0 0
11:35 am 11:35 Sunny 45 7 23 -5 42 42 NW 13 20 30.36 1028 10 16.09344 0 0
11:55 am 11:55 Sunny 45 7 25 -4 46 46 NNW 12 19 30.36 1028 10 16.09344 0 0
12:15 pm 12:15 Sunny 45 7 23 -5 42 42 NNW 14 22 30.36 1028 10 16.09344 0 0
12:35 pm 12:35 Sunny 46 8 23 -5 40 40 NW 13 20 30.36 1028 10 16.09344 0 0
12:55 pm 12:55 Sunny 46 8 23 -5 40 40 NNW 10 17 30.36 1028 10 16.09344 0 0
1:15 pm 13:15 Sunny 46 8 23 -5 40 40 N 9 15 30.36 1028 10 16.09344 0 0
1:35 pm 13:35 Sunny 46 8 23 -5 40 40 NNW 10 17 30.33 1027 10 16.09344 0 0
1:55 pm 13:55 Sunny 50 10 25 -4 37 37 NW 15 24 30.33 1027 10 16.09344 0 0
2:15 pm 14:15 Sunny 50 10 23 -5 35 35 NNW 14 22 30.33 1027 10 16.09344 0 0
2:35 pm 14:35 Sunny 50 10 23 -5 35 35 NNW 8 13 30.33 1027 10 16.09344 0 0
2:55 pm 14:55 Sunny 50 10 23 -5 35 35 NW 6 9 30.3 1026 10 16.09344 0 0
3:15 pm 15:15 Sunny 52 11 25 -4 35 35 NNW 10 17 30.3 1026 10 16.09344 0 0
3:35 pm 15:35 Sunny 52 11 23 -5 32 32 N 14 22 30.3 1026 10 16.09344 0 0
3:55 pm 15:55 Sunny 52 11 23 -5 32 32 NNW 10 17 30.3 1026 10 16.09344 0 0
4:15 pm 16:15 Sunny 52 11 21 -6 30 30 NNW 15 24 30.3 1026 10 16.09344 0 0
4:35 pm 16:35 Sunny 52 11 21 -6 30 30 N 10 17 30.3 1026 10 16.09344 0 0
4:55 pm 16:55 Sunny 52 11 21 -6 30 30 NW 7 11 30.3 1026 10 16.09344 0 0
5:15 pm 17:15 Sunny 52 11 21 -6 30 30 N 9 15 30.3 1026 10 16.09344 0 0
5:35 pm 17:35 Sunny 52 11 21 -6 30 30 NNW 3 6 30.3 1026 10 16.09344 0 0
5:55 pm 17:55 Sunny 52 11 21 -6 30 30 N 9 15 30.3 1026 10 16.09344 0 0
6:15 pm 18:15 Sunny 52 11 21 -6 30 30 N 9 15 30.3 1026 10 16.09344 0 0
6:35 pm 18:35 Sunny 52 11 23 -5 32 32 NNE 7 11 30.3 1026 10 16.09344 0 0
6:55 pm 18:55 Sunny 50 10 21 -6 32 32 NNE 7 11 30.3 1026 10 16.09344 0 0
7:15 pm 19:15 Clear 50 10 21 -6 32 32 NNE 6 9 30.3 1026 10 16.09344 0 0
7:35 pm 19:35 Clear 48 9 23 -5 37 37 NE 5 7 30.33 1027 10 16.09344 0 0
7:55 pm 19:55 Clear 46 8 23 -5 40 40 NE 3 6 30.33 1027 10 16.09344 0 0
8:15 pm 20:15 Clear 46 8 23 -5 40 40 NE 5 7 30.33 1027 10 16.09344 0 0
8:35 pm 20:35 Clear 45 7 23 -5 42 42 N 5 7 30.33 1027 10 16.09344 0 0
8:55 pm 20:55 Clear 45 7 23 -5 42 42 Calm 30.36 1028 10 16.09344 0 0
9:15 pm 21:15 Clear 41 5 25 -4 53 53 N 5 7 30.36 1028 10 16.09344 0 0
9:35 pm 21:35 Clear 43 6 25 -4 49 49 NNE 3 6 30.36 1028 10 16.09344 0 0
9:55 pm 21:55 Clear 41 5 27 -3 57 57 Calm 30.36 1028 10 16.09344 0 0
10:15 pm 22:15 Clear 39 4 27 -3 61 61 NE 3 6 30.36 1028 10 16.09344 0 0
10:35 pm 22:35 Clear 34 1 28 -2 81 81 N 3 6 30.36 1028 10 16.09344 0 0
10:55 pm 22:55 Clear 37 3 27 -3 65 65 N 3 6 30.36 1028 10 16.09344 0 0
11:15 pm 23:15 Clear 36 2 28 -2 75 75 Calm 30.36 1028 10 16.09344 0 0
11:35 pm 23:35 Clear 36 2 27 -3 70 70 Calm 30.39 1029 10 16.09344 0 0
11:55 pm 23:55 Clear 34 1 27 -3 75 75 Calm 30.39 1029 10 16.09344 0 0

Powered by AerisWeather